DH6PF-10 Weather Reports


Display with metric or nautical units.
time (UTC)temp
F
wind
direction
speed
MPH
gust
MPH
rain 1hr
in
rain 24hr
in
rain mn
in
humidity
%
barometer
mb
20260904032345 66 162 0.0 0.0 0.00 0.00 0.00 92 1019.0
20260904031345 66 162 0.0 0.0 0.00 0.00 0.00 92 1019.0
20260904030345 66 174 0.0 0.0 0.00 0.00 0.00 92 1019.0
20260904025345 66 156 0.0 0.0 0.00 0.00 0.00 93 1019.3
20260904024345 66 156 0.0 0.0 0.00 0.00 0.00 92 1019.6
20260904023345 66 288 0.0 0.0 0.00 0.00 0.00 92 1019.6
20260904022345 66 132 0.0 0.0 0.00 0.00 0.00 94 1019.7
20260904021345 66 132 0.0 0.0 0.00 0.00 0.00 93 1019.6
20260904020345 66 132 0.0 0.0 0.00 0.00 0.00 93 1019.8
20260904015345 66 36 0.0 0.0 0.00 0.00 0.00 94 1019.7
20260904014345 66 36 0.0 0.0 0.00 0.00 0.00 94 1019.7
20260904013345 66 36 0.0 0.0 0.00 0.00 0.00 93 1019.9
20260904012345 67 228 2.0 2.0 0.00 0.00 0.00 90 1020.0
20260904011345 68 228 0.0 0.0 0.00 0.00 0.00 87 1020.2
20260904010345 68 192 0.0 0.0 0.00 0.00 0.00 88 1019.9
20260904005345 68 276 0.0 0.0 0.00 0.00 0.00 88 1020.1
20260904004345 68 276 0.0 0.0 0.00 0.00 0.00 87 1020.3
20260904003345 68 276 0.0 0.0 0.00 0.00 0.00 87 1020.3
20260904002345 68 276 0.0 0.0 0.00 0.00 0.00 87 1020.2
20260904001345 67 263 0.0 0.0 0.00 0.00 0.00 88 1020.2
20260904000347 67 263 0.0 0.0 0.00 0.00 0.00 88 1020.7
20260903235345 67 262 0.0 0.0 0.00 0.00 0.00 89 1020.6
20260903234345 67 124 0.0 0.0 0.00 0.00 0.00 89 1020.6
20260903233345 67 126 0.0 0.0 0.00 0.00 0.00 88 1021.1
20260903232345 67 125 0.0 0.0 0.00 0.00 0.00 88 1020.8
20260903231345 67 125 0.0 0.0 0.00 0.00 0.00 87 1020.7
20260903230345 67 270 0.0 0.0 0.00 0.00 0.00 87 1020.8
20260903225345 68 270 0.0 0.0 0.00 0.00 0.00 86 1020.8
20260903224345 69 270 2.0 2.0 0.00 0.00 0.00 86 1020.9
20260903223345 69 270 0.0 0.0 0.00 0.00 0.00 86 1021.1
20260903222345 68 106 0.0 0.0 0.00 0.00 0.00 86 1021.2
20260903221345 68 287 0.0 0.0 0.00 0.00 0.00 87 1021.4
20260903220345 68 292 2.0 2.0 0.00 0.00 0.00 88 1021.5
20260903215345 68 206 0.0 0.0 0.00 0.00 0.00 88 1021.3
20260903214345 67 186 0.0 0.0 0.00 0.00 0.00 88 1021.4
20260903213345 68 186 0.0 0.0 0.00 0.00 0.00 88 1021.6
20260903212345 68 186 0.0 0.0 0.00 0.00 0.00 88 1021.6
20260903211345 68 252 2.0 2.0 0.00 0.00 0.00 85 1021.6
20260903210345 68 140 0.0 0.0 0.00 0.00 0.00 85 1021.4
20260903205345 67 138 2.0 2.0 0.00 0.00 0.00 87 1021.6
20260903204345 67 60 0.0 0.0 0.00 0.00 0.00 88 1021.7
20260903203345 67 24 0.0 0.0 0.00 0.00 0.00 87 1021.7
20260903202345 66 24 0.0 0.0 0.00 0.00 0.00 87 1021.6
20260903201345 66 24 0.0 0.0 0.00 0.00 0.00 88 1021.7
20260903200345 66 24 0.0 0.0 0.00 0.00 0.00 88 1021.8
20260903195345 66 24 0.0 0.0 0.00 0.00 0.00 87 1021.6
20260903194345 66 24 0.0 0.0 0.00 0.00 0.00 87 1021.4
20260903193345 67 24 0.0 0.0 0.00 0.00 0.00 86 1021.5
20260903192345 68 24 0.0 0.0 0.00 0.00 0.00 84 1021.3
20260903191345 68 318 0.0 0.0 0.00 0.00 0.00 83 1021.4
20260903190345 68 318 0.0 0.0 0.00 0.00 0.00 83 1021.8
20260903185345 69 318 0.0 0.0 0.00 0.00 0.00 81 1021.7
20260903184345 69 271 0.0 0.0 0.00 0.00 0.00 81 1021.6
20260903183345 70 102 0.0 0.0 0.00 0.00 0.00 80 1021.3
20260903182345 70 308 0.0 0.0 0.00 0.00 0.00 78 1021.5
20260903181345 70 233 0.0 0.0 0.00 0.00 0.00 80 1021.7
20260903180345 71 226 0.0 0.0 0.00 0.00 0.00 78 1021.3
20260903175345 71 324 2.0 2.0 0.00 0.00 0.00 77 1021.3
20260903175137 71 54 0.0 0.0 0.00 0.00 0.00 77 1021.3
20260903175110 71 54 0.0 0.0 0.00 0.00 0.00 77 1021.4
20260903174846 71 300 0.0 0.0 0.00 0.00 0.00 77 1021.4
20260903174604 71 300 0.0 0.0 0.00 0.00 0.00 76 1021.5
20260903174220 71 296 2.0 2.0 0.00 0.00 0.00 76 1021.5
20260903173220 71 162 0.0 0.0 0.00 0.00 0.00 76 1021.3
20260903172220 72 132 0.0 0.0 0.00 0.00 0.00 75 1021.4
20260903171220 72 275 0.0 0.0 0.00 0.00 0.00 75 1021.3
20260903170221 72 302 2.0 2.0 0.00 0.00 0.00 74 1021.4
20260903165220 72 300 2.0 2.0 0.00 0.00 0.00 75 1021.5
20260903164220 73 113 2.0 2.0 0.00 0.00 0.00 74 1021.4
20260903163220 73 300 2.0 2.0 0.00 0.00 0.00 72 1021.3
20260903162220 73 234 3.0 4.0 0.00 0.00 0.00 72 1021.4
20260903161220 73 246 2.0 2.0 0.00 0.00 0.00 70 1021.2
20260903160220 72 135 0.0 0.0 0.00 0.00 0.00 73 1021.3
20260903155220 72 60 2.0 2.0 0.00 0.00 0.00 72 1021.5
20260903154220 72 180 2.0 2.0 0.00 0.00 0.00 71 1021.4
20260903153220 72 205 0.0 0.0 0.00 0.00 0.00 72 1021.3
20260903152220 73 277 2.0 2.0 0.00 0.00 0.00 71 1021.1
20260903151220 73 308 2.0 2.0 0.00 0.00 0.00 71 1021.5
20260903150220 73 90 0.0 0.0 0.00 0.00 0.00 72 1021.5
20260903145220 72 308 0.0 0.0 0.00 0.00 0.00 73 1021.3
20260903144220 72 293 2.0 2.0 0.00 0.00 0.00 73 1021.6
20260903143220 72 141 4.0 4.0 0.00 0.00 0.00 73 1021.7
20260903142220 72 314 2.0 2.0 0.00 0.00 0.00 72 1021.5
20260903141220 73 288 3.0 3.0 0.00 0.00 0.00 71 1021.3
20260903140220 73 294 2.0 2.0 0.00 0.00 0.00 71 1021.1
20260903135220 73 244 2.0 2.0 0.00 0.00 0.00 69 1021.0
20260903134220 74 300 0.0 0.0 0.00 0.00 0.00 69 1021.0
20260903133220 74 276 0.0 0.0 0.00 0.00 0.00 68 1020.9
20260903132220 73 90 1.0 1.0 0.00 0.00 0.00 68 1020.9
20260903131220 73 156 2.0 2.0 0.00 0.00 0.00 68 1021.0
20260903130220 73 132 0.0 0.0 0.00 0.00 0.00 68 1021.0
20260903125220 73 183 0.0 0.0 0.00 0.00 0.00 70 1021.0
20260903124220 72 266 0.0 0.0 0.00 0.00 0.00 70 1021.0
20260903123220 72 283 0.0 0.0 0.00 0.00 0.00 69 1020.9
20260903122220 73 234 0.0 0.0 0.00 0.00 0.00 68 1021.0
20260903121220 72 198 0.0 0.0 0.00 0.00 0.00 67 1020.8
20260903120220 71 280 0.0 0.0 0.00 0.00 0.00 67 1021.2
20260903115220 71 289 2.0 2.0 0.00 0.00 0.00 68 1021.3
20260903114220 70 199 0.0 0.0 0.00 0.00 0.00 71 1021.3
20260903113220 70 199 0.0 0.0 0.00 0.00 0.00 72 1021.0
20260903112220 70 270 0.0 0.0 0.00 0.00 0.00 75 1021.0
20260903111220 70 188 0.0 0.0 0.00 0.00 0.00 71 1021.0
20260903110220 70 286 1.0 1.0 0.00 0.00 0.00 69 1021.2
20260903105220 71 179 2.0 2.0 0.00 0.00 0.00 66 1021.0
20260903104220 71 124 0.0 0.0 0.00 0.00 0.00 67 1021.2
20260903103220 71 282 2.0 2.0 0.00 0.00 0.00 66 1021.2
20260903102220 70 290 1.0 1.0 0.00 0.00 0.00 67 1020.9
20260903101220 70 288 0.0 0.0 0.00 0.00 0.00 66 1021.0
20260903100220 71 277 1.0 1.0 0.00 0.00 0.00 64 1021.3
20260903095220 69 176 0.0 0.0 0.00 0.00 0.00 65 1021.3
20260903094220 69 246 0.0 0.0 0.00 0.00 0.00 67 1021.0
20260903093220 68 257 0.0 0.0 0.00 0.00 0.00 68 1021.2
20260903092220 68 185 0.0 0.0 0.00 0.00 0.00 70 1021.5
20260903091220 67 239 0.0 0.0 0.00 0.00 0.00 68 1021.3
20260903090220 68 200 2.0 2.0 0.00 0.00 0.00 68 1021.4
20260903085220 68 246 2.0 2.0 0.00 0.00 0.00 67 1021.4
20260903084220 68 259 0.0 0.0 0.00 0.00 0.00 67 1021.2
20260903083220 68 270 0.0 0.0 0.00 0.00 0.00 68 1021.2
20260903082220 67 216 2.0 2.0 0.00 0.00 0.00 67 1021.7
20260903081220 66 215 0.0 0.0 0.00 0.00 0.00 68 1021.5
20260903080220 66 203 1.0 1.0 0.00 0.00 0.00 69 1021.4
20260903075220 65 258 0.0 0.0 0.00 0.00 0.00 69 1021.3
20260903074220 66 244 0.0 0.0 0.00 0.00 0.00 69 1021.7
20260903073220 66 244 2.0 2.0 0.00 0.00 0.00 69 1021.7
20260903072220 65 244 0.0 0.0 0.00 0.00 0.00 69 1021.8
20260903071221 65 244 1.0 1.0 0.00 0.00 0.00 69 1021.6
20260903070220 65 244 0.0 0.0 0.00 0.00 0.00 69 1021.7
20260903065220 65 282 0.0 0.0 0.00 0.00 0.00 69 1021.8
20260903064220 64 282 2.0 2.0 0.00 0.00 0.00 70 1021.4
20260903063220 63 215 1.0 1.0 0.00 0.00 0.00 71 1021.3
20260903062220 63 271 0.0 0.0 0.00 0.00 0.00 72 1021.6
20260903061220 62 246 0.0 0.0 0.00 0.00 0.00 73 1021.3
20260903060220 62 227 0.0 0.0 0.00 0.00 0.00 74 1021.5
20260903055220 62 168 2.0 2.0 0.00 0.00 0.00 73 1021.5
20260903054220 62 229 0.0 0.0 0.00 0.00 0.00 74 1021.5
20260903053220 61 218 0.0 0.0 0.00 0.00 0.00 74 1021.6
20260903052220 61 212 0.0 0.0 0.00 0.00 0.00 75 1021.7
20260903051220 61 212 0.0 0.0 0.00 0.00 0.00 75 1021.9
20260903050220 61 173 0.0 0.0 0.00 0.00 0.00 75 1021.1
20260903045220 61 262 0.0 0.0 0.00 0.00 0.00 76 1021.4
20260903044220 61 240 0.0 0.0 0.00 0.00 0.00 76 1021.3
20260903043220 61 235 0.0 0.0 0.00 0.00 0.00 76 1021.6
20260903042220 61 224 0.0 0.0 0.00 0.00 0.00 74 1021.8
20260903041220 61 224 2.0 2.0 0.00 0.00 0.00 74 1021.6
20260903040220 61 224 0.0 0.0 0.00 0.00 0.00 74 1021.7
20260903035220 61 224 0.0 0.0 0.00 0.00 0.00 75 1022.0
20260903034220 61 224 0.0 0.0 0.00 0.00 0.00 76 1022.2
20260903033220 61 224 0.0 0.0 0.00 0.00 0.00 75 1021.9